[[{"header":{"parameterUnit":"m.s-1","parameterCategory":2,"la1":30.2991,"la2":30.254,"lo1":-89.0895,"lo2":-89.0444,"dy":0.0017,"dx":0.0017,"nx":28,"ny":28,"refTime":"2025-04-29T09:00:00:Z","depth":"0","parameterNumber":2,"parameterNumberName":"U-component_of_CURRENTS"},"data":[0,0,0,0,0,0,0,0,0,0,0,0,0,0,0,0,0,0,0,0,0,0,0,0,0,0,0,0,0,0,0,0,0,0,0,0,0,0,0,0,0,0,0,0,0,0,0,0,0,0,0,0,0,0,0,0,0,0,0.2752,0.2752,0,0.2729,0.2728,0.2728,0.2692,0.2691,0.2691,0.2691,0.2638,0.2637,0.2636,0,0,0,0,0,0,0,0,0,0,0,0,0,0.2763,0.2762,0.2752,0.2752,0.2752,0.2729,0.2728,0.2728,0.2692,0.2691,0.2691,0.269,0.2638,0.2637,0.2636,0,0,0,0,0,0,0,0,0,0,0,0,0,0.2748,0.2762,0.2752,0.2733,0.2731,0.2729,0.2728,0.2728,0.2692,0.2691,0.2691,0.269,0.2638,0.2637,0.2635,0.2638,0,0,0.2631,0.263,0,0,0,0,0,0,0,0,0.2749,0.2747,0.2736,0.2734,0.2733,0.2715,0.2713,0.2697,0.2692,0.2704,0.269,0.269,0.2663,0.2659,0.2653,0.2636,0.2633,0.2631,0.263,0.2629,0.2629,0,0,0,0,0,0,0,0.275,0.2748,0.274,0.2736,0.2734,0.2725,0.2722,0.271,0.2685,0.2703,0.2701,0.2703,0.2661,0.2655,0.2651,0.2633,0.2631,0.2629,0.2628,0.2628,0.2644,0.2646,0,0,0,0,0,0,0.2759,0.2749,0.2741,0.274,0.2742,0.2726,0.2722,0.2719,0.2685,0.2681,0.2703,0.2701,0.2658,0.2653,0.2649,0.2675,0.2629,0.2628,0.2627,0.2643,0.2645,0.2646,0,0,0,0,0,0,0.2759,0.2758,0.2742,0.2746,0.2744,0.2726,0.2723,0.2719,0.2717,0.2686,0.268,0.2706,0.2657,0.2652,0.265,0.2671,0.2627,0.2626,0.2641,0.2644,0.2645,0.2709,0,0,0,0,0,0,0.276,0.2758,0.276,0.2747,0.2744,0.2749,0.2724,0.2719,0.272,0.2717,0.2687,0.2681,0.2656,0.2652,0.2648,0.2668,0.2624,0.264,0.2642,0.2645,0.2706,0.2713,0.272,0,0,0,0,0,0.276,0.2764,0.276,0.276,0.2747,0.275,0.2748,0.2731,0.2721,0.2726,0.2708,0.2682,0.2666,0.2652,0.2647,0.2667,0.2638,0.2642,0.2645,0.2702,0.2712,0.272,0,0,0,0,0,0,0.2767,0.2761,0.2756,0.2757,0.2759,0.2745,0.2748,0.274,0.273,0.2727,0.2695,0.2689,0.2697,0.2677,0.2662,0.2682,0.265,0.2652,0.2696,0.2704,0.2711,0.2722,0.2623,0,0,0,0,0,0.2772,0.2773,0.277,0.2772,0.2776,0.2765,0.2765,0.2757,0.2748,0.2742,0.2721,0.2706,0.2706,0.27,0.2691,0.2698,0.27,0.271,0.2717,0.2724,0.2731,0.2772,0.2784,0.2656,0.2656,0.2656,0,0,0.2774,0.2773,0.2772,0.2775,0.2773,0.278,0.2763,0.2769,0.2775,0.2739,0.2737,0.273,0.2715,0.2725,0.2727,0.2709,0.276,0.2728,0.2733,0.2736,0.2776,0.2789,0.28,0.2658,0.2658,0.2658,0,0,0.2784,0.2783,0.2789,0.2795,0.2802,0.2797,0.2803,0.2796,0.2795,0.2801,0.2781,0.2792,0.2776,0.2775,0.2773,0.2817,0.28,0.2813,0.2854,0.2895,0.2905,0.2915,0.293,0.2941,0.2814,0.2814,0.2814,0,0.2789,0.279,0.2793,0.2805,0.2812,0.2807,0.282,0.2821,0.2813,0.2832,0.281,0.2825,0.2805,0.2836,0.2846,0.2834,0.2846,0.282,0.2905,0.2914,0.2923,0.2936,0.2947,0.2818,0.2817,0.2817,0.2817,0,0.2801,0.2806,0.2814,0.2824,0.2838,0.2846,0.2856,0.287,0.2872,0.2881,0.2916,0.2896,0.2909,0.2907,0.2885,0.2939,0.2924,0.2912,0.2883,0.294,0.295,0.296,0.2823,0.2821,0.282,0.2819,0,0,0.2788,0.2815,0.2815,0.2822,0.2847,0.2853,0.289,0.2923,0.2945,0.296,0.2995,0.3006,0.3007,0.3005,0.2985,0.3011,0.3073,0.2988,0.2988,0.3003,0.3153,0.3095,0.31,0.3081,0.3084,0.3085,0.3133,0,0.2791,0.2811,0.2829,0.2845,0.2855,0.2885,0.2913,0.2952,0.2978,0.3009,0.3039,0.3052,0.3041,0.3036,0.3074,0.307,0.3104,0.306,0.3095,0.3096,0.3038,0.3112,0.2962,0.2989,0.3143,0.3144,0.3145,0,0.2784,0.28,0.2819,0.2852,0.2861,0.2873,0.2927,0.2954,0.3025,0.3053,0.3109,0.3114,0.3162,0.3127,0.3196,0.3171,0.3172,0.3171,0.3173,0.3104,0.3057,0.2958,0.3001,0.2907,0.3161,0.3159,0.3158,0,0.2753,0.2785,0.2796,0.2806,0.285,0.2873,0.29,0.2971,0.3006,0.3075,0.3114,0.3175,0.3198,0.3233,0.3244,0.3224,0.3311,0.3279,0.3234,0.3228,0.31,0.3079,0.3055,0.3335,0.3335,0.3335,0.3335,0,0.2732,0.2737,0.2776,0.2777,0.2798,0.2846,0.2881,0.2929,0.3003,0.3053,0.3123,0.3166,0.323,0.3282,0.328,0.3299,0.3351,0.3258,0.3249,0.3116,0.3098,0.3007,0.2968,0.3337,0.3336,0.3336,0.3336,0,0.2684,0.271,0.2719,0.2764,0.2777,0.2791,0.286,0.2886,0.2975,0.3042,0.3066,0.3184,0.3255,0.3306,0.3357,0.334,0.3247,0.3339,0.3168,0.3138,0.2981,0.2951,0.2837,0.2753,0.3291,0.3291,0.329,0,0.2658,0.2659,0.2694,0.2698,0.2711,0.2745,0.2768,0.2857,0.2895,0.3044,0.3069,0.3177,0.3234,0.3311,0.3291,0.3295,0.3209,0.3156,0.3087,0.2969,0.293,0.2829,0.276,0.2938,0.2935,0.2932,0.2929,0,0.2611,0.262,0.2629,0.2641,0.2652,0.2672,0.2717,0.2746,0.2858,0.2926,0.3018,0.3076,0.3172,0.3124,0.3151,0.3127,0.2981,0.3094,0.3022,0.27,0.2539,0.2453,0.2901,0.2903,0.2906,0.2908,0.2909,0.291,0.2568,0.2559,0.257,0.2568,0.2581,0.2581,0.2572,0.2633,0.2682,0.2753,0.2888,0.2921,0.2959,0.297,0.2939,0.2779,0.2798,0.2669,0.2658,0.2579,0.2445,0.283,0.2792,0.2794,0.2796,0.2797,0.2798,0,0.2508,0.2501,0.2499,0.2483,0.2453,0.2494,0.2516,0.2492,0.2503,0.259,0.265,0.2649,0.2597,0.2598,0.2488,0.2366,0.2255,0.2283,0.2104,0.2071,0.2454,0.2385,0.2195,0.2195,0.2195,0.2196,0.2196,0.2196,0.2478,0.2442,0.2432,0.2354,0.2339,0.2272,0.2261,0.2248,0.2276,0.2252,0.2234,0.2283,0.2346,0.2265,0.2106,0.2039,0.1882,0.1768,0.18,0.2065,0.21,0.2133,0.2059,0.1804,0.1803,0.1308,0.1304,0.1301]},{"header":{"parameterUnit":"m.s-1","parameterCategory":2,"la1":30.2991,"la2":30.254,"lo1":-89.0895,"lo2":-89.0444,"dy":0.0017,"dx":0.0017,"nx":28,"ny":28,"refTime":"2025-04-29T09:00:00:Z","depth":"0","parameterNumber":3,"parameterNumberName":"V-component_of_CURRENTS"},"data":[0,0,0,0,0,0,0,0,0,0,0,0,0,0,0,0,0,0,0,0,0,0,0,0,0,0,0,0,0,0,0,0,0,0,0,0,0,0,0,0,0,0,0,0,0,0,0,0,0,0,0,0,0,0,0,0,0,0,0.0377,0.0377,0,0.0368,0.0368,0.0367,0.0354,0.0354,0.0353,0.0353,0.0318,0.0317,0.0317,0,0,0,0,0,0,0,0,0,0,0,0,0,0.0348,0.0349,0.0377,0.0377,0.0377,0.0368,0.0368,0.0367,0.0354,0.0354,0.0353,0.0353,0.0318,0.0317,0.0317,0,0,0,0,0,0,0,0,0,0,0,0,0,0.0351,0.0349,0.0377,0.0369,0.0369,0.0368,0.0368,0.0367,0.0354,0.0354,0.0353,0.0353,0.0319,0.0318,0.0316,0.0314,0,0,0.0313,0.0312,0,0,0,0,0,0,0,0,0.0351,0.0352,0.0371,0.037,0.0369,0.0362,0.0345,0.0349,0.0354,0.0359,0.0353,0.0353,0.0331,0.0329,0.0327,0.0313,0.0311,0.0313,0.0312,0.0312,0.0311,0,0,0,0,0,0,0,0.0351,0.0353,0.0372,0.0371,0.037,0.0355,0.0355,0.0345,0.0345,0.0358,0.0357,0.0358,0.033,0.0328,0.0326,0.0311,0.0313,0.0312,0.0311,0.0311,0.029,0.029,0,0,0,0,0,0,0.0356,0.0353,0.0373,0.0372,0.036,0.0356,0.0356,0.0364,0.0346,0.0343,0.0358,0.0357,0.033,0.0327,0.0325,0.0334,0.0312,0.031,0.031,0.029,0.029,0.029,0,0,0,0,0,0,0.0356,0.0358,0.0373,0.0362,0.0363,0.0357,0.0366,0.0364,0.0364,0.0346,0.0343,0.036,0.033,0.0326,0.0322,0.0332,0.031,0.0309,0.029,0.029,0.029,0.0345,0,0,0,0,0,0,0.0355,0.0358,0.0364,0.0363,0.0364,0.038,0.0366,0.0364,0.0365,0.0364,0.0347,0.0344,0.033,0.0324,0.0321,0.033,0.0308,0.0289,0.029,0.029,0.0343,0.0347,0.035,0,0,0,0,0,0.0354,0.0368,0.0365,0.0367,0.0373,0.0381,0.038,0.0374,0.0366,0.0372,0.0359,0.0344,0.0324,0.0324,0.032,0.0329,0.0289,0.029,0.029,0.0341,0.0346,0.035,0,0,0,0,0,0,0.0358,0.0368,0.0364,0.038,0.0382,0.0379,0.0384,0.0378,0.0373,0.037,0.035,0.0346,0.0344,0.0328,0.0328,0.0322,0.0302,0.0302,0.0342,0.0347,0.035,0.037,0.0307,0,0,0,0,0,0.0362,0.0376,0.0379,0.0391,0.0394,0.0389,0.039,0.0387,0.0382,0.038,0.0366,0.0351,0.0342,0.0338,0.0325,0.0326,0.0307,0.0326,0.033,0.0334,0.0346,0.0327,0.0331,0.0291,0.0291,0.0291,0,0,0.0366,0.0373,0.038,0.0392,0.0393,0.0409,0.0389,0.0397,0.0409,0.0377,0.0385,0.0364,0.0344,0.0345,0.0342,0.0334,0.0333,0.0334,0.0337,0.0348,0.0328,0.0332,0.0335,0.0292,0.0292,0.0292,0,0,0.0386,0.0389,0.0409,0.0416,0.0424,0.0423,0.0428,0.0426,0.0425,0.043,0.0408,0.0396,0.0381,0.0372,0.0365,0.0381,0.0351,0.037,0.041,0.0392,0.0395,0.0398,0.0373,0.0373,0.0375,0.0375,0.0375,0,0.039,0.0419,0.0415,0.0437,0.045,0.0434,0.046,0.0458,0.0453,0.0462,0.044,0.0422,0.0397,0.0407,0.0408,0.0391,0.0373,0.0397,0.0398,0.04,0.0402,0.0376,0.0376,0.0378,0.0377,0.0377,0.0377,0,0.0429,0.045,0.0463,0.0489,0.05,0.0519,0.052,0.0527,0.0519,0.0517,0.0519,0.0482,0.0475,0.0459,0.0438,0.0443,0.0422,0.0404,0.0391,0.041,0.038,0.0379,0.0381,0.038,0.038,0.0379,0,0,0.0446,0.0485,0.0489,0.0517,0.0531,0.0551,0.0571,0.0594,0.0623,0.0595,0.0624,0.0586,0.0562,0.0551,0.0517,0.0497,0.0483,0.046,0.0458,0.0443,0.0439,0.0416,0.0411,0.0465,0.0465,0.0466,0.041,0,0.048,0.0537,0.0544,0.0598,0.0631,0.063,0.0658,0.0673,0.0676,0.0696,0.0656,0.0659,0.0599,0.0593,0.0565,0.051,0.0483,0.0499,0.0416,0.0413,0.0397,0.041,0.0443,0.0396,0.0409,0.0409,0.0408,0,0.052,0.0557,0.0616,0.0673,0.0688,0.0713,0.0767,0.0792,0.0808,0.0809,0.0797,0.0761,0.073,0.067,0.0586,0.06,0.0524,0.0472,0.0468,0.0431,0.0388,0.0379,0.0392,0.0313,0.0406,0.0406,0.0406,0,0.0553,0.0611,0.0664,0.0682,0.0736,0.0765,0.0796,0.0828,0.0869,0.0879,0.0904,0.085,0.0835,0.0738,0.0616,0.0602,0.0521,0.0487,0.0393,0.039,0.0394,0.0391,0.033,0.0423,0.0423,0.0423,0.0423,0,0.0594,0.0638,0.0685,0.0717,0.0792,0.0812,0.0891,0.0913,0.0958,0.1026,0.0964,0.0993,0.0851,0.0782,0.0655,0.0526,0.0545,0.0407,0.0379,0.0411,0.0411,0.0322,0.0256,0.0421,0.0421,0.0422,0.0422,0,0.0624,0.065,0.0721,0.0785,0.081,0.0867,0.0956,0.1017,0.1047,0.1132,0.1136,0.1102,0.1017,0.0865,0.0713,0.0588,0.0401,0.0399,0.0442,0.042,0.0256,0.0191,0.0085,0.0036,0.0293,0.0292,0.0291,0,0.0646,0.0683,0.077,0.0817,0.0848,0.0932,0.0996,0.1055,0.1126,0.1207,0.1253,0.1197,0.1184,0.095,0.0717,0.0497,0.0385,0.0363,0.0338,0.0259,0.0166,0.0127,0.0092,0.0359,0.0359,0.0358,0.0358,0,0.0689,0.0715,0.0772,0.0869,0.0942,0.1037,0.1132,0.1204,0.129,0.137,0.1453,0.145,0.1239,0.1042,0.0728,0.0564,0.0312,0.0354,0.0268,0.0212,0.017,0.0108,0.0373,0.0358,0.0358,0.0358,0.0358,0.0358,0.0717,0.0763,0.0834,0.0928,0.1014,0.113,0.1221,0.1337,0.1472,0.1609,0.1595,0.1627,0.1341,0.093,0.0698,0.0315,0.0295,0.0213,0.014,0.0108,0.0067,0.0325,0.0279,0.0278,0.0278,0.0278,0.0278,0,0.0753,0.0805,0.0891,0.1001,0.1096,0.1141,0.1304,0.1413,0.1587,0.1705,0.1785,0.1664,0.1322,0.0941,0.0424,0.0167,0.0072,0.0027,-0.0007,-0.0036,0.0202,0.0212,0.0155,0.0155,0.0155,0.0155,0.0155,0.0155,0.0772,0.0849,0.0893,0.1044,0.1125,0.1267,0.1367,0.1544,0.1668,0.1821,0.1844,0.1834,0.1551,0.068,0.0124,-0.0012,-0.018,-0.022,-0.0322,-0.0141,-0.0128,-0.0116,-0.0119,-0.0245,-0.0245,-0.0494,-0.0496,-0.0498]}],[{"header":{"parameterUnit":"m.s-1","parameterCategory":2,"la1":30.2991,"la2":30.254,"lo1":-89.0895,"lo2":-89.0444,"dy":0.0017,"dx":0.0017,"nx":28,"ny":28,"refTime":"2025-04-29T09:00:00:Z","depth":"2","parameterNumber":2,"parameterNumberName":"U-component_of_CURRENTS"},"data":[0,0,0,0,0,0,0,0,0,0,0,0,0,0,0,0,0,0,0,0,0,0,0,0,0,0,0,0,0,0,0,0,0,0,0,0,0,0,0,0,0,0,0,0,0,0,0,0,0,0,0,0,0,0,0,0,0,0,0.236,0.236,0,0.2353,0.2353,0.2352,0.2339,0.2339,0.2339,0.2339,0.2323,0.2323,0.2323,0,0,0,0,0,0,0,0,0,0,0,0,0,0.237,0.2369,0.236,0.236,0.236,0.2353,0.2353,0.2352,0.2339,0.2339,0.2339,0.2339,0.2324,0.2323,0.2323,0,0,0,0,0,0,0,0,0,0,0,0,0,0.2363,0.2369,0.236,0.2354,0.2354,0.2353,0.2353,0.2352,0.2339,0.2339,0.2339,0.2339,0.2324,0.2323,0.2323,0.2322,0,0,0.2321,0.2321,0,0,0,0,0,0,0,0,0.2363,0.2362,0.2355,0.2355,0.2354,0.2348,0.235,0.2342,0.234,0.2343,0.2339,0.2339,0.2332,0.2331,0.2327,0.2321,0.232,0.2321,0.2321,0.232,0.232,0,0,0,0,0,0,0,0.2364,0.2362,0.2355,0.2355,0.2355,0.2355,0.2353,0.2349,0.2337,0.2343,0.2342,0.2344,0.2332,0.2328,0.2327,0.232,0.2321,0.2321,0.232,0.232,0.236,0.2362,0,0,0,0,0,0,0.2368,0.2363,0.2356,0.2355,0.236,0.2355,0.2353,0.2349,0.2337,0.2336,0.2344,0.2344,0.2329,0.2328,0.2326,0.2365,0.232,0.232,0.232,0.2359,0.2361,0.2362,0,0,0,0,0,0,0.2368,0.2367,0.2356,0.2361,0.236,0.2355,0.235,0.2349,0.2357,0.2339,0.2337,0.2355,0.2329,0.2327,0.2338,0.2363,0.232,0.2319,0.2357,0.2359,0.2361,0.2416,0,0,0,0,0,0,0.2368,0.2367,0.2371,0.2361,0.236,0.2366,0.2351,0.2349,0.2358,0.2357,0.2347,0.2345,0.2329,0.2339,0.2338,0.2361,0.2319,0.2356,0.2358,0.2361,0.2413,0.242,0.2426,0,0,0,0,0,0.2368,0.2371,0.2371,0.237,0.2363,0.2367,0.2366,0.2361,0.2359,0.2367,0.2363,0.2346,0.2355,0.234,0.2338,0.2362,0.2354,0.2357,0.236,0.241,0.2418,0.2426,0,0,0,0,0,0,0.2375,0.2369,0.2369,0.2369,0.2375,0.2365,0.2373,0.2371,0.2374,0.2376,0.2358,0.2356,0.2377,0.2364,0.2348,0.2383,0.2354,0.2356,0.2392,0.24,0.2406,0.2412,0.2318,0,0,0,0,0,0.238,0.238,0.2379,0.2382,0.2386,0.2384,0.2387,0.2386,0.2385,0.2387,0.2379,0.2378,0.2387,0.2389,0.2389,0.2404,0.2407,0.2421,0.2427,0.2433,0.2438,0.2478,0.2489,0.2372,0.2372,0.2372,0,0,0.2383,0.2381,0.2381,0.2384,0.2387,0.2395,0.2385,0.2396,0.2406,0.2385,0.2398,0.2401,0.2397,0.2417,0.2425,0.2409,0.2467,0.2437,0.2442,0.2444,0.2482,0.2493,0.2504,0.2374,0.2374,0.2374,0,0,0.239,0.2391,0.2396,0.2403,0.2414,0.2412,0.2421,0.2422,0.2428,0.2446,0.2437,0.2458,0.246,0.2465,0.2468,0.2514,0.2503,0.2517,0.2552,0.2591,0.2601,0.261,0.2625,0.2634,0.2518,0.2518,0.2518,0,0.2398,0.2396,0.24,0.241,0.2419,0.2423,0.2436,0.2443,0.2449,0.247,0.2459,0.2495,0.2486,0.2522,0.2535,0.2529,0.2543,0.252,0.26,0.2609,0.2617,0.263,0.264,0.2521,0.2521,0.2521,0.252,0,0.2404,0.2411,0.2417,0.2428,0.2443,0.2454,0.2468,0.2488,0.25,0.2516,0.2562,0.2557,0.2582,0.2585,0.257,0.2626,0.2615,0.2606,0.2579,0.2632,0.2642,0.2652,0.2526,0.2524,0.2524,0.2523,0,0,0.2395,0.2417,0.2418,0.2426,0.2453,0.246,0.2498,0.2534,0.2561,0.2588,0.2629,0.2653,0.2666,0.267,0.2661,0.2688,0.2747,0.2672,0.2673,0.2685,0.2826,0.2761,0.2764,0.2759,0.2761,0.2763,0.2809,0,0.2397,0.2412,0.2429,0.2448,0.2456,0.2489,0.2518,0.2561,0.2594,0.2634,0.267,0.2699,0.2693,0.2703,0.2739,0.2745,0.2776,0.2735,0.2774,0.2775,0.2709,0.2774,0.2537,0.2554,0.2818,0.2819,0.282,0,0.239,0.2402,0.2421,0.2454,0.2463,0.2481,0.2539,0.2568,0.2644,0.2677,0.274,0.2757,0.2811,0.2784,0.2855,0.2834,0.2839,0.284,0.2842,0.2768,0.2727,0.2545,0.256,0.2836,0.2834,0.2833,0.2832,0,0.2362,0.2391,0.2404,0.2414,0.2457,0.2485,0.2516,0.2589,0.2628,0.2705,0.2749,0.2816,0.2853,0.2886,0.2906,0.2888,0.297,0.2942,0.2891,0.2885,0.2682,0.2656,0.2994,0.2994,0.2994,0.2994,0.2994,0,0.2342,0.2349,0.239,0.2393,0.242,0.2467,0.2512,0.256,0.2639,0.2692,0.2767,0.2813,0.2885,0.2938,0.2937,0.2953,0.3007,0.291,0.2903,0.2694,0.2669,0.2909,0.2899,0.2996,0.2995,0.2995,0.2995,0,0.23,0.2325,0.2338,0.2386,0.2403,0.2424,0.2501,0.2532,0.2623,0.2694,0.2723,0.284,0.2911,0.2963,0.3016,0.2992,0.2999,0.2985,0.2727,0.2688,0.2875,0.2867,0.2931,0.2929,0.2927,0.2926,0.2925,0,0.2275,0.2278,0.2321,0.2329,0.2348,0.2391,0.2419,0.2511,0.2549,0.2697,0.2721,0.2836,0.2884,0.2955,0.2924,0.2921,0.2987,0.2696,0.2616,0.2887,0.2874,0.2868,0.2862,0.2364,0.2359,0.2354,0.2351,0,0.2231,0.2248,0.2261,0.228,0.2301,0.2325,0.2375,0.2401,0.2511,0.2576,0.2657,0.2711,0.2798,0.2695,0.2716,0.2677,0.2676,0.2604,0.2969,0.2422,0.2358,0.2344,0.2355,0.231,0.2314,0.2317,0.2319,0.2321,0.2198,0.2193,0.2211,0.2218,0.2239,0.2237,0.2227,0.2281,0.2322,0.2382,0.2507,0.2509,0.2539,0.2446,0.2363,0.2293,0.2479,0.2351,0.2363,0.238,0.2311,0.2249,0.2167,0.217,0.2172,0.2175,0.2177,0,0.2143,0.2142,0.2146,0.2136,0.2112,0.2163,0.2173,0.2134,0.2125,0.2207,0.2251,0.2079,0.2016,0.2043,0.1872,0.1863,0.1822,0.1784,0.1704,0.1747,0.1784,0.1682,0.1372,0.1369,0.1367,0.1365,0,0,0.2116,0.2087,0.2078,0.2008,0.2004,0.1939,0.1923,0.1879,0.189,0.1847,0.1826,0.197,0.2012,0.1685,0.1629,0.1471,0.1599,0.141,0.206,0.2012,0.2046,0.2121,0.2014,0,0,0,0,0]},{"header":{"parameterUnit":"m.s-1","parameterCategory":2,"la1":30.2991,"la2":30.254,"lo1":-89.0895,"lo2":-89.0444,"dy":0.0017,"dx":0.0017,"nx":28,"ny":28,"refTime":"2025-04-29T09:00:00:Z","depth":"2","parameterNumber":3,"parameterNumberName":"V-component_of_CURRENTS"},"data":[0,0,0,0,0,0,0,0,0,0,0,0,0,0,0,0,0,0,0,0,0,0,0,0,0,0,0,0,0,0,0,0,0,0,0,0,0,0,0,0,0,0,0,0,0,0,0,0,0,0,0,0,0,0,0,0,0,0,0.0218,0.0218,0,0.021,0.021,0.021,0.0202,0.0202,0.0202,0.0202,0.0174,0.0173,0.0173,0,0,0,0,0,0,0,0,0,0,0,0,0,0.0195,0.0196,0.0218,0.0218,0.0218,0.021,0.021,0.021,0.0202,0.0202,0.0202,0.0202,0.0174,0.0173,0.0173,0,0,0,0,0,0,0,0,0,0,0,0,0,0.0198,0.0196,0.0218,0.0213,0.0213,0.021,0.021,0.021,0.0202,0.0202,0.0202,0.0202,0.0175,0.0174,0.0173,0.0168,0,0,0.0169,0.0169,0,0,0,0,0,0,0,0,0.0198,0.0199,0.0214,0.0214,0.0213,0.0208,0.0192,0.0195,0.0202,0.0206,0.0202,0.0202,0.0184,0.0182,0.018,0.0167,0.0165,0.0169,0.0169,0.0168,0.0168,0,0,0,0,0,0,0,0.0198,0.0199,0.0214,0.0214,0.0214,0.0201,0.0202,0.0192,0.0195,0.0206,0.0205,0.0205,0.0183,0.0181,0.018,0.0165,0.0169,0.0168,0.0168,0.0167,0.0149,0.015,0,0,0,0,0,0,0.0201,0.0199,0.0215,0.0214,0.0206,0.0202,0.0203,0.0209,0.0195,0.0193,0.0205,0.0205,0.0183,0.0181,0.0179,0.0188,0.0168,0.0167,0.0167,0.0149,0.0149,0.015,0,0,0,0,0,0,0.0201,0.0203,0.0215,0.0206,0.0207,0.0203,0.021,0.0209,0.0211,0.0195,0.0193,0.0208,0.0183,0.018,0.0177,0.0186,0.0167,0.0166,0.0149,0.0149,0.015,0.0197,0,0,0,0,0,0,0.0201,0.0203,0.0208,0.0207,0.0208,0.0221,0.021,0.0209,0.0211,0.021,0.0197,0.0194,0.0183,0.0179,0.0176,0.0184,0.0165,0.0149,0.0149,0.0149,0.0195,0.0199,0.0202,0,0,0,0,0,0.02,0.0211,0.0209,0.0211,0.0216,0.0221,0.0221,0.0216,0.0211,0.0216,0.0207,0.0195,0.0179,0.0179,0.0175,0.0183,0.0149,0.0149,0.0149,0.0194,0.0198,0.0202,0,0,0,0,0,0,0.0202,0.0211,0.0209,0.0221,0.0223,0.022,0.0224,0.022,0.0217,0.0216,0.0199,0.0196,0.0196,0.0182,0.0182,0.0177,0.016,0.016,0.0195,0.0199,0.0202,0.0217,0.0164,0,0,0,0,0,0.0206,0.0217,0.022,0.0229,0.0232,0.0228,0.0229,0.0228,0.0224,0.0223,0.0213,0.0201,0.0194,0.0191,0.018,0.018,0.0161,0.0181,0.0184,0.0187,0.0197,0.0174,0.0177,0.0151,0.0151,0.0151,0,0,0.0209,0.0215,0.0221,0.0231,0.0232,0.0245,0.0229,0.0236,0.0247,0.022,0.0229,0.0212,0.0195,0.0197,0.0195,0.0188,0.0183,0.0188,0.0191,0.0198,0.0175,0.0178,0.018,0.0151,0.0151,0.0151,0,0,0.0225,0.0228,0.0245,0.0251,0.0257,0.0257,0.0261,0.0261,0.0261,0.0266,0.0249,0.0239,0.0228,0.0219,0.0213,0.0227,0.02,0.022,0.0253,0.0231,0.0233,0.0235,0.021,0.0209,0.0224,0.0224,0.0224,0,0.0229,0.0253,0.0249,0.0268,0.0279,0.0266,0.0289,0.0288,0.0285,0.0292,0.0275,0.026,0.024,0.0247,0.025,0.0236,0.0218,0.0241,0.0236,0.0237,0.0238,0.0213,0.0211,0.0226,0.0226,0.0226,0.0225,0,0.0261,0.0279,0.029,0.0313,0.0322,0.0338,0.034,0.0346,0.0341,0.0338,0.034,0.031,0.0303,0.029,0.0276,0.0276,0.0259,0.0242,0.0229,0.0244,0.0216,0.0213,0.0229,0.0229,0.0228,0.0227,0,0,0.0276,0.0308,0.0312,0.0336,0.0349,0.0366,0.0383,0.0402,0.0426,0.0403,0.0425,0.0395,0.0374,0.0366,0.0338,0.0317,0.03,0.0287,0.0285,0.0269,0.0251,0.0233,0.0228,0.0284,0.0284,0.0283,0.0227,0,0.0305,0.0354,0.0358,0.0405,0.0434,0.0433,0.0457,0.047,0.0471,0.0486,0.0449,0.0453,0.0405,0.0402,0.0373,0.0325,0.0296,0.0317,0.0234,0.0232,0.0219,0.0226,0.0243,0.0194,0.0224,0.0224,0.0224,0,0.034,0.0371,0.0421,0.047,0.0482,0.0505,0.0551,0.0572,0.0582,0.0582,0.0569,0.0537,0.0508,0.046,0.0379,0.0396,0.0328,0.028,0.0276,0.0245,0.021,0.0184,0.0188,0.0219,0.0219,0.022,0.022,0,0.0368,0.0417,0.0463,0.0478,0.0525,0.055,0.0578,0.0603,0.0639,0.0643,0.0663,0.0611,0.0598,0.0507,0.0401,0.0391,0.0308,0.0279,0.0197,0.0194,0.0185,0.0183,0.0215,0.0215,0.0216,0.0216,0.0216,0,0.0404,0.0442,0.0483,0.0511,0.0576,0.0593,0.0661,0.068,0.0717,0.0774,0.0716,0.0739,0.061,0.0545,0.043,0.0312,0.0325,0.0207,0.0182,0.0201,0.0201,0.0204,0.0203,0.0214,0.0214,0.0214,0.0215,0,0.0431,0.0453,0.0514,0.057,0.0593,0.0643,0.0723,0.0776,0.08,0.0871,0.0875,0.0839,0.0758,0.0619,0.0477,0.0364,0.0241,0.019,0.022,0.02,0.0132,0.0134,0.0095,0.0094,0.0093,0.0092,0.0092,0,0.045,0.0483,0.0559,0.0603,0.0631,0.0706,0.0765,0.0814,0.0876,0.094,0.098,0.0924,0.0903,0.0683,0.0477,0.0274,0.0241,0.0143,0.0123,0.0142,0.0121,0.0125,0.0128,0.0124,0.0124,0.0124,0.0123,0,0.0488,0.0512,0.0563,0.0652,0.072,0.0806,0.0892,0.0953,0.1025,0.1088,0.115,0.1136,0.0943,0.0747,0.0466,0.0323,0.0175,0.0131,0.0148,0.0155,0.0165,0.0146,0.0149,0.0121,0.0122,0.0122,0.0122,0.0122,0.0515,0.0556,0.0622,0.0708,0.079,0.0894,0.0971,0.1069,0.118,0.1279,0.1264,0.1249,0.1028,0.0673,0.0429,0.0165,0.0179,0.0074,0.0076,0.0078,0.0095,0.0103,0.005,0.005,0.005,0.005,0.005,0,0.0551,0.0598,0.0676,0.0777,0.0866,0.091,0.105,0.113,0.1264,0.1348,0.1398,0.1185,0.097,0.0704,0.0323,0.0098,0.0079,0.0011,0.0043,0.0047,0.005,0.0066,0.0013,0.0012,0.0011,0.0011,0,0,0.0569,0.064,0.0678,0.0817,0.0895,0.1021,0.1105,0.1225,0.1311,0.1394,0.1391,0.1362,0.1048,0.0763,0.046,0.0237,0.019,0.0185,0.024,0.0318,0.0324,0.0111,0.0143,0,0,0,0,0]}],[{"header":{"parameterUnit":"m.s-1","parameterCategory":2,"la1":30.2991,"la2":30.254,"lo1":-89.0895,"lo2":-89.0444,"dy":0.0017,"dx":0.0017,"nx":28,"ny":28,"refTime":"2025-04-29T09:00:00:Z","depth":"4","parameterNumber":2,"parameterNumberName":"U-component_of_CURRENTS"},"data":[0,0,0,0,0,0,0,0,0,0,0,0,0,0,0,0,0,0,0,0,0,0,0,0,0,0,0,0,0,0,0,0,0,0,0,0,0,0,0,0,0,0,0,0,0,0,0,0,0,0,0,0,0,0,0,0,0,0,0.147,0.1471,0,0.1506,0.1506,0.1506,0.1548,0.1549,0.1549,0.155,0.1609,0.161,0.1611,0,0,0,0,0,0,0,0,0,0,0,0,0,0.1445,0.1445,0.147,0.1471,0.1471,0.1506,0.1506,0.1507,0.1548,0.1549,0.155,0.155,0.1609,0.161,0.1611,0,0,0,0,0,0,0,0,0,0,0,0,0,0.1465,0.1445,0.147,0.1497,0.15,0.1506,0.1506,0.1507,0.1548,0.1549,0.155,0.1551,0.1609,0.161,0.1611,0.1597,0,0,0.1615,0.1616,0,0,0,0,0,0,0,0,0.1464,0.1465,0.1493,0.1495,0.1498,0.1525,0.1519,0.1539,0.1547,0.1528,0.155,0.1551,0.1583,0.1587,0.1589,0.16,0.1603,0.1616,0.1616,0.1617,0.1617,0,0,0,0,0,0,0,0.1462,0.1464,0.1483,0.1493,0.1497,0.151,0.1514,0.1523,0.1549,0.153,0.1533,0.1539,0.1585,0.1587,0.1591,0.1604,0.1615,0.1617,0.1617,0.1618,0.1711,0.1713,0,0,0,0,0,0,0.1458,0.1463,0.1482,0.1484,0.1485,0.1509,0.1514,0.1514,0.1548,0.1554,0.1538,0.1541,0.1585,0.1589,0.1593,0.1668,0.1617,0.1618,0.1619,0.171,0.1712,0.1713,0,0,0,0,0,0,0.1458,0.146,0.1481,0.1476,0.148,0.1509,0.1509,0.1514,0.1551,0.1554,0.1561,0.1573,0.1586,0.1591,0.1634,0.1667,0.1619,0.162,0.1708,0.171,0.1712,0.1761,0,0,0,0,0,0,0.1457,0.1459,0.1476,0.1475,0.148,0.1505,0.1508,0.1514,0.1551,0.1556,0.1586,0.159,0.1587,0.1632,0.1635,0.1668,0.1621,0.1705,0.1709,0.1712,0.1757,0.1764,0.1771,0,0,0,0,0,0.1455,0.1465,0.1476,0.1479,0.1495,0.1506,0.151,0.1533,0.1552,0.157,0.1596,0.1591,0.1654,0.1634,0.1637,0.1672,0.1704,0.1708,0.1711,0.1754,0.1763,0.1771,0,0,0,0,0,0,0.1465,0.147,0.1482,0.1495,0.1511,0.1514,0.1537,0.1551,0.1585,0.1603,0.1607,0.1614,0.1665,0.1663,0.164,0.171,0.168,0.1685,0.1711,0.172,0.1727,0.1725,0.1622,0,0,0,0,0,0.1473,0.1485,0.1492,0.1508,0.1518,0.1535,0.155,0.1566,0.1587,0.1604,0.1624,0.1651,0.1676,0.1695,0.1712,0.1746,0.1749,0.1773,0.178,0.1786,0.1789,0.183,0.1841,0.1726,0.1726,0.1726,0,0,0.1483,0.1488,0.1497,0.1512,0.1529,0.1543,0.1548,0.1579,0.1602,0.1604,0.1655,0.1677,0.1692,0.1733,0.1756,0.174,0.1821,0.1791,0.1796,0.1795,0.1835,0.1846,0.1856,0.1728,0.1728,0.1727,0,0,0.1494,0.1514,0.1525,0.154,0.1568,0.1575,0.1591,0.1614,0.1641,0.1683,0.1696,0.174,0.1775,0.1792,0.1803,0.186,0.1857,0.1874,0.1908,0.1948,0.1958,0.1966,0.1981,0.199,0.1877,0.1877,0.1877,0,0.1512,0.1519,0.1533,0.1548,0.1566,0.1592,0.1611,0.1635,0.1673,0.1704,0.1711,0.1789,0.1801,0.1851,0.1873,0.1876,0.1892,0.1872,0.1957,0.1965,0.1973,0.1986,0.1996,0.188,0.188,0.1879,0.1879,0,0.1518,0.1541,0.1552,0.1575,0.1599,0.1622,0.1649,0.1689,0.1728,0.1756,0.183,0.1851,0.19,0.1913,0.1909,0.1976,0.1967,0.196,0.1932,0.1987,0.1997,0.2007,0.1884,0.1883,0.1882,0.1882,0,0,0.1511,0.1549,0.1557,0.1575,0.1618,0.1631,0.1684,0.1733,0.1777,0.1831,0.189,0.1942,0.1972,0.1987,0.1998,0.2028,0.2092,0.2023,0.2024,0.2031,0.2175,0.2026,0.2021,0.2109,0.2111,0.2112,0.2157,0,0.1516,0.1542,0.1565,0.1603,0.1618,0.1666,0.1707,0.1764,0.1818,0.188,0.1933,0.1992,0.1995,0.2028,0.2065,0.209,0.212,0.208,0.2125,0.2126,0.1982,0.2028,0.2119,0.2164,0.2166,0.2168,0.2169,0,0.1507,0.1528,0.1564,0.1615,0.163,0.1665,0.1744,0.1786,0.188,0.1928,0.2007,0.2048,0.2119,0.2103,0.2185,0.2165,0.2178,0.2185,0.2188,0.2036,0.1994,0.21,0.2185,0.2184,0.2183,0.2181,0.218,0,0.1474,0.1523,0.1554,0.1572,0.1635,0.168,0.1725,0.1815,0.1866,0.1969,0.2025,0.2109,0.2169,0.2206,0.2241,0.2227,0.2309,0.2288,0.2164,0.2154,0.2252,0.2243,0.234,0.234,0.234,0.234,0.234,0,0.1446,0.1474,0.1548,0.1562,0.1615,0.1672,0.1744,0.1804,0.1901,0.1962,0.2056,0.2108,0.2204,0.2263,0.2268,0.2243,0.2341,0.2172,0.2158,0.227,0.2263,0.2258,0.2248,0.2341,0.2341,0.2341,0.234,0,0.1395,0.1443,0.1483,0.1566,0.1599,0.1641,0.1749,0.1791,0.19,0.1982,0.2023,0.2146,0.2211,0.2274,0.2335,0.2269,0.2258,0.2225,0.234,0.2332,0.2066,0.2058,0.2078,0.2073,0.2069,0.2066,0.2063,0,0.1364,0.1382,0.148,0.151,0.1554,0.1628,0.1672,0.1781,0.1823,0.1981,0.2003,0.2124,0.2186,0.2151,0.2224,0.2218,0.2193,0.2167,0.2107,0.2055,0.2041,0.204,0.2038,0.2057,0.2056,0.2054,0.2053,0,0.1308,0.1362,0.1398,0.1462,0.1517,0.156,0.1634,0.1652,0.1772,0.1896,0.1931,0.196,0.2029,0.2058,0.2077,0.2068,0.2167,0.2124,0.2131,0.2075,0.203,0.2019,0.2022,0.2039,0.2041,0.2043,0.2043,0,0.1277,0.129,0.1351,0.1393,0.1457,0.1463,0.1512,0.1549,0.1605,0.1766,0.1776,0.1893,0.2011,0.1981,0.1996,0.1978,0.1939,0.1857,0.1878,0.1895,0.1812,0.1725,0.1632,0,0,0,0,0,0.1233,0.1235,0.127,0.1298,0.1354,0.1391,0.1468,0.1516,0.1635,0.1611,0.1685,0.1731,0.1755,0.1815,0.1759,0.1913,0.1949,0.1837,0.1866,0.1961,0.1977,0.1896,0,0,0,0,0,0,0.1201,0.1236,0.1238,0.1211,0.1214,0.1255,0.1299,0.1378,0.1363,0.1496,0.1518,0.1622,0.1674,0.1776,0.1729,0.1745,0.1723,0.1912,0.1907,0.1952,0.1967,0.198,0.1902,0,0,0,0,0]},{"header":{"parameterUnit":"m.s-1","parameterCategory":2,"la1":30.2991,"la2":30.254,"lo1":-89.0895,"lo2":-89.0444,"dy":0.0017,"dx":0.0017,"nx":28,"ny":28,"refTime":"2025-04-29T09:00:00:Z","depth":"4","parameterNumber":3,"parameterNumberName":"V-component_of_CURRENTS"},"data":[0,0,0,0,0,0,0,0,0,0,0,0,0,0,0,0,0,0,0,0,0,0,0,0,0,0,0,0,0,0,0,0,0,0,0,0,0,0,0,0,0,0,0,0,0,0,0,0,0,0,0,0,0,0,0,0,0,0,0.0148,0.0148,0,0.0145,0.0145,0.0145,0.0145,0.0145,0.0145,0.0145,0.0128,0.0128,0.0127,0,0,0,0,0,0,0,0,0,0,0,0,0,0.0131,0.0131,0.0148,0.0148,0.0148,0.0145,0.0145,0.0145,0.0145,0.0145,0.0145,0.0145,0.0128,0.0128,0.0127,0,0,0,0,0,0,0,0,0,0,0,0,0,0.0134,0.0131,0.0148,0.0148,0.0148,0.0145,0.0145,0.0145,0.0145,0.0145,0.0145,0.0145,0.0128,0.0128,0.0127,0.0121,0,0,0.0125,0.0124,0,0,0,0,0,0,0,0,0.0134,0.0135,0.0148,0.0148,0.0148,0.0146,0.0133,0.0137,0.0145,0.0146,0.0145,0.0145,0.0133,0.0132,0.0131,0.0121,0.012,0.0125,0.0124,0.0124,0.0124,0,0,0,0,0,0,0,0.0134,0.0135,0.0147,0.0148,0.0148,0.014,0.0141,0.0134,0.0139,0.0146,0.0146,0.0146,0.0132,0.0132,0.0131,0.012,0.0125,0.0124,0.0124,0.0123,0.0111,0.0112,0,0,0,0,0,0,0.0135,0.0135,0.0147,0.0147,0.0141,0.014,0.0141,0.0146,0.0139,0.0138,0.0146,0.0146,0.0133,0.0131,0.013,0.014,0.0124,0.0123,0.0123,0.0111,0.0111,0.0112,0,0,0,0,0,0,0.0135,0.0137,0.0147,0.014,0.0141,0.0141,0.0146,0.0146,0.015,0.0139,0.0138,0.015,0.0133,0.0131,0.0131,0.0138,0.0123,0.0122,0.0111,0.0111,0.0112,0.0149,0,0,0,0,0,0,0.0135,0.0137,0.0142,0.0141,0.0142,0.0152,0.0146,0.0146,0.0149,0.0149,0.0142,0.014,0.0133,0.0132,0.013,0.0137,0.0122,0.0111,0.0111,0.0111,0.0147,0.015,0.0152,0,0,0,0,0,0.0134,0.0142,0.0142,0.0144,0.0148,0.0152,0.0152,0.0151,0.015,0.0154,0.015,0.0141,0.0132,0.0132,0.0129,0.0136,0.0111,0.0111,0.0111,0.0146,0.0149,0.0152,0,0,0,0,0,0,0.0136,0.0143,0.0143,0.0152,0.0154,0.0152,0.0157,0.0155,0.0155,0.0156,0.0145,0.0143,0.0144,0.0134,0.0134,0.0132,0.0119,0.0119,0.0146,0.0149,0.0152,0.0161,0.0121,0,0,0,0,0,0.0139,0.0148,0.015,0.0158,0.016,0.0159,0.016,0.016,0.0159,0.016,0.0154,0.0147,0.0143,0.0141,0.0134,0.0135,0.0116,0.0136,0.0139,0.0141,0.0147,0.0123,0.0124,0.0113,0.0113,0.0113,0,0,0.0141,0.0146,0.0151,0.0159,0.0161,0.0171,0.016,0.0166,0.0177,0.0157,0.0168,0.0156,0.0144,0.0147,0.0146,0.014,0.0134,0.0142,0.0144,0.0148,0.0123,0.0124,0.0125,0.0113,0.0113,0.0113,0,0,0.0153,0.0156,0.0169,0.0174,0.018,0.0181,0.0185,0.0186,0.0188,0.0194,0.0183,0.0176,0.0171,0.0164,0.016,0.0171,0.0148,0.0168,0.0191,0.0168,0.0169,0.0169,0.0146,0.0144,0.017,0.017,0.017,0,0.0156,0.0174,0.0172,0.0186,0.0195,0.0188,0.0205,0.0207,0.0207,0.0211,0.0202,0.0192,0.0179,0.0183,0.0187,0.0177,0.0161,0.0182,0.0172,0.0172,0.0172,0.0147,0.0145,0.0172,0.0172,0.0172,0.0172,0,0.0179,0.0193,0.0201,0.022,0.0228,0.0241,0.0244,0.0251,0.025,0.0248,0.0249,0.0229,0.0224,0.0216,0.0207,0.0203,0.019,0.0178,0.0166,0.0175,0.0149,0.0145,0.0175,0.0174,0.0174,0.0173,0,0,0.0188,0.0214,0.0217,0.0236,0.0249,0.0261,0.0277,0.0291,0.0309,0.0294,0.0308,0.0289,0.0274,0.0268,0.0249,0.0229,0.021,0.0208,0.0206,0.0188,0.016,0.0148,0.0143,0.0197,0.0197,0.0196,0.0141,0,0.0208,0.0244,0.025,0.0287,0.0308,0.0311,0.0331,0.0341,0.0343,0.0352,0.0324,0.0328,0.0296,0.0296,0.0269,0.023,0.0203,0.0226,0.015,0.0147,0.0139,0.014,0.0195,0.0138,0.0137,0.0137,0.0136,0,0.0231,0.0255,0.0294,0.0333,0.0343,0.0363,0.0398,0.0417,0.0422,0.0421,0.041,0.0388,0.0362,0.033,0.0259,0.0277,0.0222,0.0182,0.0179,0.0154,0.013,0.0126,0.013,0.0131,0.0131,0.0131,0.0132,0,0.0248,0.0287,0.0323,0.0336,0.0374,0.0396,0.042,0.0438,0.0467,0.0467,0.0481,0.0437,0.0428,0.0352,0.0269,0.0265,0.0184,0.0166,0.01,0.0098,0.0109,0.0109,0.0107,0.0107,0.0107,0.0107,0.0107,0,0.027,0.03,0.0337,0.0358,0.041,0.0427,0.0481,0.0496,0.0524,0.0564,0.0521,0.0533,0.0435,0.0377,0.0286,0.0187,0.0193,0.0105,0.0084,0.0125,0.0128,0.0106,0.0107,0.0105,0.0106,0.0106,0.0106,0,0.0282,0.0304,0.0352,0.04,0.0421,0.0461,0.053,0.057,0.0589,0.0639,0.0643,0.0609,0.0538,0.0428,0.0308,0.0221,0.0118,0.0077,0.0133,0.0116,0.0041,0.0044,-0.0001,-0.0002,-0.0002,-0.0003,-0.0003,0,0.0292,0.0317,0.0384,0.0421,0.0447,0.0509,0.0558,0.0599,0.0644,0.0687,0.0712,0.0665,0.0624,0.0449,0.0322,0.0141,0.011,0.0046,0.0036,0.0046,0.003,0.0035,0.0039,-0.0005,-0.0005,-0.0005,-0.0005,0,0.031,0.0335,0.0375,0.0452,0.051,0.0579,0.0649,0.0685,0.0741,0.0758,0.0771,0.0687,0.0607,0.046,0.032,0.0188,0.0081,0.0038,0.0038,0.0028,0.0041,0.0027,0.0032,-0.0008,-0.0007,-0.0007,-0.0007,0,0.0326,0.0355,0.0412,0.0481,0.0556,0.063,0.0666,0.0722,0.0766,0.0807,0.0809,0.0724,0.0678,0.0485,0.0357,0.0225,0.0184,0.0123,0.0118,0.0119,0.0164,0.0198,0.0183,0,0,0,0,0,0.034,0.0375,0.0438,0.0514,0.0591,0.0637,0.0722,0.0752,0.0802,0.0817,0.0816,0.0741,0.0569,0.0496,0.0363,0.0325,0.0148,0.0161,0.0072,-0.0021,-0.0018,0.0013,0,0,0,0,0,0,0.0348,0.0404,0.0435,0.0531,0.0586,0.0674,0.073,0.0766,0.0771,0.08,0.0713,0.0687,0.0518,0.0645,0.0355,0.0317,0.0236,0.0087,0.0083,-0.0023,-0.002,-0.0018,0.0015,0,0,0,0,0]}]]